Regional Weather Roundup
Issued by NWS

Home | Current Version | Previous Version | Graphics & Text | Print | Product List | Glossary On
Versions: 1 2 3 4 5 6 7 8 9 10 11 12 13 14 15 16 17 18 19 20 21 22 23 24 25 26 27 28 29 30 31 32 33 34 35 36 37 38 39 40 41 42 43 44 45 46 47 48 49 50
000
ASUS43 KBIS 111702
RWRND

NORTH DAKOTA REGIONAL WEATHER ROUNDUP
NATIONAL WEATHER SERVICE BISMARCK ND
1100 AM CST MON DEC 11 2017

NOTE: "FAIR" INDICATES FEW OR NO CLOUDS BELOW 12,000 FEET WITH NO
SIGNIFICANT WEATHER AND/OR OBSTRUCTIONS TO VISIBILITY.


NDZ001>003-009>011-017-111800-
NORTHWEST NORTH DAKOTA

CITY           SKY/WX    TMP DP  RH WIND       PRES   REMARKS
WILLISTON      FLURRIES  36  31  82 NW13      30.31R
MINOT          CLOUDY    31  23  72 N16       30.23R WCI  20
MINOT AFB      CLOUDY    29  22  74 N13       30.23R WCI  19
$$

NDZ018>021-031>035-040>046-111800-
SOUTHWEST NORTH DAKOTA

CITY           SKY/WX    TMP DP  RH WIND       PRES   REMARKS
BISMARCK       CLOUDY    37  29  72 N17G26    30.22R
DICKINSON      CLOUDY    35  31  85 NW16G25   30.25R
GARRISON         N/A     35  26  69 N21       30.21R
HETTINGER ARPT CLOUDY    36  28  73 NW31G39   30.27R
$$

NDZ004>008-012>016-024-026-027-054-111800-
NORTHEAST NORTH DAKOTA

CITY           SKY/WX    TMP DP  RH WIND       PRES   REMARKS
GRAND FORKS    BLWGSNOW  19  14  81 N32G46    30.14R VSB 1   WCI  -1
GRND FRKS AFB  CLOUDY    19  12  74 N24G38    30.15R BLWGSNOWWCI   2
DEVILS LAKE    FLURRIES  19  15  84 N22G29    30.20R WCI   2
$$

NDZ022-023-025-028>030-036>039-047>053-111800-
SOUTHEAST NORTH DAKOTA

CITY           SKY/WX    TMP DP  RH WIND       PRES   REMARKS
FARGO          MIX PCPN  26  21  81 N30G44    30.08R WCI  10
JAMESTOWN      CLOUDY    27  23  85 N22G37    30.13R WCI  13
$$





USA.gov is the U.S. government's official web portal to all federal, state and local government web resources and services.